#timestamp,LO_Frequency,Hit,StdDev 
1629396015.6,286047000.2,N
1629396035.4,286047000.4,N
1629396055.3,286046999.8,N
1629396075.1,286047002.5,Y
1629396095.9,286047002.2,P
1629396115.7,286047002.5,N
1629396135.5,286047002.3,N
1629396155.4,286047000.3,N
1629396175.2,286047000.7,N
1629396195.0,286046999.1,N
1629396196.0,286046999.1,N
1629396215.8,286046996.8,N
1629396235.6,286046996.5,N
1629396255.5,286046997.0,N
1629396275.3,286046999.2,N
1629396295.1,286046996.5,N
1629396315.9,286046999.1,N
1629396335.7,286047000.6,N
1629396355.5,286047000.3,N
1629396375.4,286047000.3,N
1629396395.2,286047000.6,N
1629396415.1,286047000.2,N
1629396416.0,286047000.2,N
1629396435.8,286047000.9,N
1629396455.6,286047000.6,N
1629396475.5,286047000.8,N
1629396495.3,286047000.9,N
1629396515.1,286047000.9,N
1629396535.9,286047000.4,N
1629396555.7,286047000.7,N
1629396575.6,286047001.1,N
1629396595.4,286046998.1,N
1629396615.2,286046996.6,N
1629396635.1,286046999.6,N
1629396636.0,286046999.6,N
1629396655.8,286046999.5,N
1629396675.6,286046996.5,N
1629396695.5,286046998.9,N
1629396715.3,286046998.1,N
1629396735.2,286046998.2,N
1629396755.9,286047000.7,N
1629396775.7,286047000.7,N
1629396795.6,286046998.5,N
1629396815.4,286047000.6,N
1629396835.2,286047000.7,N
1629396855.1,286046999.0,N
1629396856.0,286046999.0,N
1629396875.8,286046998.1,N
1629396895.7,286046998.1,N
1629396915.5,286047000.5,N
1629396935.3,286047000.5,N
1629396955.2,286047000.0,N
1629396975.0,286047000.3,N
1629396975.9,286047011.9,Y
1629396995.8,286047000.4,P
1629397015.6,286047002.8,P
1629397035.4,286047002.8,N
1629397055.3,286046999.8,N
1629397075.1,286047000.4,N
1629397076.0,286047000.4,N
1629397095.8,286047000.7,N
1629397115.7,286047001.2,N
1629397135.5,286046999.3,N
1629397155.3,286046998.6,N
1629397175.2,286047001.2,N
1629397195.0,286047001.1,N
1629397195.9,286047001.1,N
1629397215.8,286046998.4,N
1629397235.6,286046998.1,N
1629397255.4,286046998.1,N
1629397275.3,286046998.1,N
1629397295.1,286046998.5,N
1629397345.9,286046999.2,E
1629397355.8,286046998.6,N
1629397375.6,286046998.6,P
1629397395.5,286047000.0,P
1629397415.3,286047000.4,N
1629397435.1,286047001.1,N
1629397455.9,286047000.4,N
1629397475.7,286047000.0,N
1629397495.6,286047000.4,N
1629397515.4,286047000.5,N
1629397535.2,286046998.5,N
1629397555.1,286046998.7,N
1629397556.0,286046998.7,N
1629397575.8,286047001.0,N
1629397595.6,286046998.8,N
1629397615.5,286046998.9,N
1629397635.3,286047000.0,N
1629397655.2,286047001.0,N
1629397675.9,286047002.4,N
1629397695.7,286047002.2,N
1629397715.6,286047004.1,Y
1629397735.4,286047002.9,P
1629397755.2,286047003.0,N
1629397775.1,286047006.0,P
1629397776.0,286047006.0,N
1629397795.8,286047003.0,N
1629397815.7,286047005.6,N
1629397835.5,286047003.0,N
1629397855.3,286047005.9,Y
1629397875.2,286046999.8,P
1629397895.0,286047002.8,N
1629397895.9,286047002.8,N
1629397915.8,286047001.6,N
1629397935.6,286047002.1,N
1629397955.4,286047002.6,N
1629397975.3,286047001.4,N
1629397995.1,286047001.8,N
1629398015.8,286047004.0,Y
1629398035.7,286047000.9,P
1629398055.5,286046999.9,N
1629398075.4,286046998.1,N
1629398095.2,286047000.8,N
1629398115.0,286046998.5,N
1629398115.9,286046998.5,N
1629398135.8,286047000.8,N
1629398155.6,286047001.2,N
1629398175.4,286046998.5,N
1629398195.3,286046998.4,N
1629398215.1,286046999.4,N
1629398235.9,286046998.4,N
1629398255.7,286046999.4,N
1629398275.5,286046999.0,N
1629398295.4,286046999.5,N
1629398315.2,286046996.6,N
1629398335.1,286046999.0,N
1629398336.0,286046999.0,N
1629398355.8,286046997.0,N
1629398375.6,286046994.9,Y
1629398395.5,286046995.5,P
1629398415.3,286046995.2,N
1629398435.2,286046995.7,N
1629398455.9,286046997.6,N
1629398475.7,286046995.4,N
1629398495.6,286046998.0,N
1629398515.4,286046995.4,Y
1629398535.2,286046998.8,P
1629398555.1,286046998.6,N
1629398556.0,286046998.6,N
1629398575.8,286046996.8,Y
1629398595.7,286046998.9,P
1629398615.5,286046996.5,P
1629398635.3,286046996.8,P
1629398655.2,286046995.3,Y
1629398675.0,286046996.6,P
1629398675.9,286046996.6,P
1629398695.8,286046997.3,P
1629398715.6,286046997.5,Y
1629398735.4,286047000.5,P
1629398755.3,286047000.3,N
1629398775.1,286047002.8,N
1629398795.8,286047000.5,N
1629398815.7,286046999.9,N
1629398835.5,286047002.8,N
1629398855.4,286047002.2,N
1629398875.2,286047002.5,N
1629398895.0,286047002.7,N
1629398895.9,286047002.7,N
1629398915.8,286047000.2,N
1629398935.6,286047002.1,N
1629398955.4,286047004.4,N
1629398975.3,286047003.9,N
1629398995.1,286047001.5,N
1629399015.9,286047001.9,N
1629399035.7,286047000.1,N
1629399055.5,286046999.8,N
1629399075.4,286047002.3,N
1629399095.2,286047002.1,N
1629399115.0,286047002.7,N
1629399115.9,286047002.7,N
1629399135.8,286046999.8,N
1629399155.6,286047002.0,N
1629399175.4,286047002.5,N
1629399195.3,286047002.8,N
1629399215.1,286046999.9,N
1629399235.9,286047002.8,N
1629399255.7,286046999.9,N
1629399275.5,286047000.1,N
1629399295.4,286047002.0,N
1629399315.2,286047001.3,N
1629399335.1,286047003.9,Y
1629399336.0,286047003.9,P
1629399355.8,286046999.9,N
1629399375.6,286047000.6,N
1629399395.5,286046998.1,N
1629399415.3,286047000.0,N
1629399435.2,286047000.2,N
1629399455.9,286047000.3,N
1629399475.7,286046999.8,N
1629399495.6,286047000.5,N
1629399515.4,286047000.9,N
1629399535.2,286047000.3,N
1629399555.1,286046998.6,N
1629399556.0,286046998.6,N
1629399575.8,286047000.0,N
1629399595.7,286046999.9,N
